METEOR 2-11 DEB, 40704

Orbit data source: Space-Track

METEOR 2-11 DEB, 40704 is space debris in LEO originally from a launch on Thu, 05 Jul 1984 UTC launched from the Plesetsk Missile And Space Complex (PKMTR). Debris objects in space refer to the collection of defunct objects orbiting the Earth. Examples of debris include non-operational satellites, rocket bodies, and fragments generated from explosions, collisions, or faulty payload assembly.

Loading next visibility...
METEOR 2-11 DEB details
Identifier
40704, 1984-072F
Orbit
LEO
Last TLE update2 weeks ago
Origin
Flag of CISVVKO (CIS)
ManufacturerUnknown
MissionSpacecraft
Bus & MotorUnknown
MassUnknown
Launch date (UTC)
1984-07-05 (40 years ago)
Launch vehicleUnknown
Launch site
Plesetsk Missile And Space Complex (PKMTR)
Object type
Payload
Rocket body
Debris
Shape & HBRUnknown
Radar Cross SectionSmall (<0.1 m²)

Expand to show TLE details & history

TLE from 2 weeks ago
0 METEOR 2-11 DEB
1 40704U 84072F   24347.59742916  .00004041  00000-0  29293-2 0  9995
2 40704  82.5188  95.5402 0031321 120.3603 240.0667 13.95975905490325
Epoch: 2024-12-12T14:20Z
Definitive object data (Epoch: 2024-12-12T14:20:17.879Z)
Latitude-0.00004°
Longitude158.69022°
Altitude922.124 km
Speed7.385 km/s
True Right ascension06h 22m 09s
True Declination0° 00' 00"
Sunlit
Object was in full shadow at TLE epoch
Visualization TLE readout
Latitude-2.16473°
Longitude146.92623°
Altitude907.367 km
Speed7.4 km/s
Apparent Right ascension05h 10m 33s
Apparent Declination-19° 47' 16"
Sunlit
Object is in full shadow
Visualization observer readout
Local Sidereal Time16:33:59
Azimuth336.046° NNW
Elevation-68.398°
Doppler factor1
Orbital elements
Apogee altitude927.711 km
Perigee altitude882.089 km
Semi-major axis7,283.037 km
Eccentricity0.0031321
Inclination82.5188°
RAAN95.5402°
Arg. of periapsis120.3603°
True anomaly239.75627°
Mean anomaly240.0667°
Eccentric anomaly239.91143°
Mean motion3.492 °/min
BSTAR0.0029293
Orbital period103.09 mins
Loading maneuver chart data...
Loading historical data...
Loading historical data...
Loading historical data...
Loading historical data...
Loading historical data...
Loading historical data...
Loading historical data...

METEOR 2-11 DEB Visibility forecast

Observer location: undefined°, undefined

Span
Click to sort rows by Start time (UTC) header in descending order
Start Az.
Max El. time (UTC)
Max El. Az.
Max El.
End time (UTC)
End Az.
11 mins2024-12-26 17:46:42.241Z350.969° N2024-12-26 17:51:42.241Z330.825° NNW44.15°2024-12-26 17:57:42.241Z176.674° S
6 mins2024-12-27 05:23:42.241Z118.761° SE2024-12-27 05:25:42.241Z92.564° ESE20.923°2024-12-27 05:29:42.241Z42.232° NE
9 mins2024-12-27 07:05:42.241Z216.173° SW2024-12-27 07:09:42.241Z280.585° WNW35.526°2024-12-27 07:14:42.241Z352.977° N
5 mins2024-12-27 16:10:42.241Z46.096° ENE2024-12-27 16:12:42.241Z69.79° E15.767°2024-12-27 16:15:42.241Z102.633° ESE
|